Change the Weather History Date:

Monday, March 10, 2014

  Actual Average Record
Temperature  
Mean Temperature 53 °F -  
Max Temperature 75 °F 41 °F 75 °F (2014)
Min Temperature 32 °F 23 °F 1 °F (1998)
Degree Days  
Heating Degree Days 12    
Growing Degree Days 3 (Base 50)    
Moisture  
Dew Point 32 °F    
Average Humidity 53    
Maximum Humidity 87    
Minimum Humidity 24    
Precipitation  
Precipitation 0.00 in - - ()
Sea Level Pressure  
Sea Level Pressure 29.74 in    
Wind  
Wind Speed 4 mph (SSE)    
Max Wind Speed 8 mph    
Max Gust Speed -    
Visibility 10 miles    
Events      
Averages and records for this station are not official NWS values.
T = Trace of Precipitation, MM = Missing Value Source: NWS Daily Summary

Daily Weather History Graph

Daily Weather History Graph

Search for Another Location

Airport or City:

Trip Planner

Search our weather history database for the weather conditions in past years. The results will help you decide how hot, cold, wet, or windy it might be!

Date:

Astronomy

Mar. 10, 2014 Rise Set
Actual Time 7:43 AM CDT 7:24 PM CDT
Civil Twilight 7:16 AM CDT 7:52 PM CDT
Nautical Twilight 6:44 AM CDT 8:24 PM CDT
Astronomical Twilight 6:12 AM CDT 8:56 PM CDT
Moon 2:07 PM CDT (3/10) 3:58 AM CDT (3/10)
Length of Visible Light 12h 36m
Length of Day
11h 41m
Waxing Gibbous, 70% of the Moon is Illuminated
Mar 10
Waxing Gibbous
Mar 16
Full
Mar 23
Last Quarter
Mar 30
New
Apr 7
First Quarter

Hourly Weather History & Observations

Time (CDT) Temp. Windchill Dew Point Humidity Pressure Visibility Wind Dir Wind Speed Gust Speed Precip Events Conditions
12:58 AM 48.2 °F - 30.6 °F 51% 29.82 in 10.0 mi South 5.8 mph - N/A   Clear
1:58 AM 44.1 °F 40.1 °F 29.7 °F 57% 29.81 in 10.0 mi South 6.9 mph - N/A   Clear
2:58 AM 43.3 °F 39.9 °F 30.0 °F 59% 29.79 in 10.0 mi South 5.8 mph - N/A   Clear
3:58 AM 38.8 °F 36.5 °F 29.3 °F 69% 29.77 in 10.0 mi SSW 3.5 mph - N/A   Clear
4:58 AM 38.3 °F - 29.5 °F 71% 29.78 in 10.0 mi Calm Calm - N/A   Clear
5:58 AM 36.7 °F 34.1 °F 29.1 °F 74% 29.78 in 10.0 mi SSW 3.5 mph - N/A   Clear
6:58 AM 34.5 °F - 29.8 °F 83% 29.79 in 10.0 mi Calm Calm - N/A   Clear
7:58 AM 32.7 °F - 29.1 °F 87% 29.79 in 10.0 mi Calm Calm - N/A   Clear
8:58 AM 38.3 °F - 32.5 °F 80% 29.79 in 10.0 mi Calm Calm - N/A   Clear
9:58 AM 47.5 °F - 31.5 °F 54% 29.83 in 10.0 mi WNW 5.8 mph - N/A   Clear
10:58 AM 55.4 °F - 31.6 °F 40% 29.81 in 10.0 mi Variable 3.5 mph - N/A   Clear
11:58 AM 62.2 °F - 32.5 °F 33% 29.80 in 10.0 mi Variable 2.3 mph - N/A   Clear
12:58 PM 67.1 °F - 34.5 °F 30% 29.79 in 8.0 mi ESE 2.3 mph - N/A   Clear
1:58 PM 70.2 °F - 35.4 °F 28% 29.76 in 10.0 mi WNW 2.3 mph - N/A   Clear
2:58 PM 72.7 °F - 35.4 °F 26% 29.72 in 9.0 mi Calm Calm - N/A   Clear
3:58 PM 74.1 °F - 34.9 °F 24% 29.70 in 10.0 mi WNW 4.6 mph - N/A   Clear
4:58 PM 73.6 °F - 35.2 °F 25% 29.69 in 10.0 mi SSE 3.5 mph - N/A   Clear
5:58 PM 73.6 °F - 34.3 °F 24% 29.67 in 10.0 mi SE 5.8 mph - N/A   Clear
6:58 PM 65.5 °F - 34.0 °F 31% 29.68 in 10.0 mi SE 4.6 mph - N/A   Clear
7:58 PM 57.6 °F - 34.7 °F 42% 29.68 in 10.0 mi ESE 8.1 mph - N/A   Clear
8:58 PM 46.8 °F - 33.3 °F 59% 29.69 in 10.0 mi ESE 5.8 mph - N/A   Clear
9:58 PM 46.2 °F 44.1 °F 33.3 °F 61% 29.66 in 10.0 mi ESE 4.6 mph - N/A   Clear
10:58 PM 41.7 °F 38.0 °F 34.0 °F 74% 29.64 in 10.0 mi East 5.8 mph - N/A   Clear
11:58 PM 39.2 °F 34.2 °F 34.3 °F 83% 29.62 in 10.0 mi East 6.9 mph - N/A   Clear